sat.trackr.live / text

‹ back to catalog

STARLINK-30840

NORAD 58223 · 2023-170T

PAYLOAD ACTIVE UNKNOWN

§ Identity

Operator
Country
US
Launch date
2023-11-03
Launch site
AFETR
Launch vehicle
Mass (kg)
RCS (m²)

Purposes: comms

External: N2YO · Heavens-Above · Gunter

§ Orbital elements

Epoch: 2026-05-24T23:36:30.428064Z

Period
94.27 min
Inclination
43.0026°
Eccentricity
0.0000912
Mean motion
15.27574492 rev/d
Perigee alt
482.4 km
Apogee alt
483.7 km
Semi-major
6,861.2 km
B*
4.3475e-6
RAAN
123.6762°
Arg perigee
271.0371°
Mean anomaly
89.0376°
Rev number
14,196

§ Raw data

STARLINK-308401 58223U 23170T   26144.98368551 -.00000142  00000+0  43475-5 0  99902 58223  43.0026 123.6762 0000912 271.0371  89.0376 15.27574492141967

JSON: /api/v1/satellites/58223 · /tle

For live sub-satellite position, see the globe view (requires WebGL).

§ Visibility from observer

Set your observer location to see the next 7 days of passes ≥ 10°. The values pass through the URL so the page stays shareable.

No JS? Fill the form by hand. The geolocation button needs JavaScript.